| time (UTC) | temp C | wind direction | speed KPH | gust KPH | rain 1hr cm | rain 24hr cm | rain mn cm | humidity % | barometer mb |
| 20260502163214 | 21 | 0 | 0.0 | 0.0 | 0.03 | 0.97 | 0.23 | 100 | 1019.8 |
| 20260502162503 | 21 | 0 | 0.0 | 0.0 | 0.03 | 0.97 | 0.23 | 100 | 1019.8 |
| 20260502162003 | 20 | 0 | 0.0 | 0.0 | 0.00 | 0.97 | 0.20 | 100 | 1019.7 |
| 20260502161504 | 20 | 0 | 0.0 | 0.0 | 0.00 | 0.97 | 0.20 | 100 | 1019.9 |
| 20260502161004 | 20 | 0 | 0.0 | 0.0 | 0.03 | 0.97 | 0.20 | 100 | 1019.7 |
| 20260502160504 | 20 | 0 | 0.0 | 0.0 | 0.03 | 0.99 | 0.20 | 100 | 1019.6 |
| 20260502160217 | 20 | 0 | 0.0 | 0.0 | 0.03 | 0.99 | 0.20 | 100 | 1019.5 |
| 20260502152003 | 19 | 0 | 0.0 | 0.0 | 0.03 | 1.07 | 0.20 | 100 | 1019.5 |
| 20260502151503 | 18 | 0 | 0.0 | 0.0 | 0.03 | 1.07 | 0.20 | 100 | 1019.5 |
| 20260502151004 | 18 | 0 | 0.0 | 0.0 | 0.00 | 1.07 | 0.18 | 100 | 1019.6 |
| 20260502150503 | 18 | 0 | 0.0 | 0.0 | 0.03 | 1.07 | 0.18 | 100 | 1019.6 |
| 20260502130503 | 15 | 0 | 0.0 | 0.0 | 0.03 | 1.17 | 0.15 | 100 | 1018.5 |
| 20260502123503 | 13 | 0 | 0.0 | 0.0 | 0.00 | 1.14 | 0.13 | 100 | 1018.1 |
| 20260502123003 | 13 | 0 | 0.0 | 0.0 | 0.00 | 1.14 | 0.13 | 100 | 1018.1 |
| 20260502122503 | 13 | 0 | 0.0 | 0.0 | 0.00 | 1.14 | 0.13 | 100 | 1018.0 |
| 20260502122218 | 13 | 0 | 0.0 | 0.0 | 0.00 | 1.14 | 0.13 | 100 | 1017.9 |
| 20260502121716 | 13 | 0 | 0.0 | 0.0 | 0.00 | 1.14 | 0.13 | 100 | 1017.8 |
| 20260502121003 | 13 | 0 | 0.0 | 0.0 | 0.00 | 1.14 | 0.13 | 100 | 1017.7 |
| 20260502120716 | 13 | 0 | 0.0 | 0.0 | 0.00 | 1.14 | 0.13 | 100 | 1017.6 |
| 20260502115718 | 13 | 0 | 0.0 | 0.0 | 0.00 | 1.14 | 0.13 | 100 | 1017.3 |
| 20260502115003 | 13 | 0 | 0.0 | 0.0 | 0.00 | 1.14 | 0.13 | 100 | 1017.2 |
| 20260502114713 | 13 | 0 | 0.0 | 0.0 | 0.00 | 1.14 | 0.13 | 100 | 1017.2 |
| 20260502114003 | 13 | 0 | 0.0 | 0.0 | 0.00 | 1.14 | 0.13 | 100 | 1017.0 |
| 20260502113504 | 13 | 0 | 0.0 | 0.0 | 0.00 | 1.14 | 0.13 | 100 | 1017.0 |
| 20260502113004 | 13 | 0 | 0.0 | 0.0 | 0.00 | 1.14 | 0.13 | 100 | 1017.0 |
| 20260502112503 | 13 | 0 | 0.0 | 0.0 | 0.00 | 1.14 | 0.13 | 100 | 1016.9 |
| 20260502112004 | 13 | 0 | 0.0 | 0.0 | 0.00 | 1.14 | 0.13 | 100 | 1016.8 |
| 20260502111503 | 13 | 0 | 0.0 | 0.0 | 0.00 | 1.14 | 0.13 | 100 | 1016.7 |
| 20260502111004 | 13 | 0 | 0.0 | 0.0 | 0.00 | 1.14 | 0.13 | 100 | 1016.7 |
| 20260502110717 | 13 | 0 | 0.0 | 0.0 | 0.00 | 1.14 | 0.13 | 100 | 1016.7 |
| 20260502110004 | 13 | 0 | 0.0 | 0.0 | 0.00 | 1.14 | 0.13 | 100 | 1016.5 |
| 20260502105503 | 13 | 0 | 0.0 | 0.0 | 0.00 | 1.14 | 0.13 | 100 | 1016.5 |
| 20260502105004 | 13 | 0 | 0.0 | 0.0 | 0.00 | 1.14 | 0.13 | 100 | 1016.5 |
| 20260502104714 | 13 | 0 | 0.0 | 0.0 | 0.00 | 1.14 | 0.13 | 100 | 1016.5 |
| 20260502104004 | 13 | 0 | 0.0 | 0.0 | 0.00 | 1.14 | 0.13 | 100 | 1016.5 |
| 20260502103504 | 13 | 0 | 0.0 | 0.0 | 0.00 | 1.14 | 0.13 | 100 | 1016.3 |
| 20260502103004 | 13 | 0 | 0.0 | 0.0 | 0.00 | 1.14 | 0.13 | 100 | 1016.3 |
| 20260502102503 | 13 | 0 | 0.0 | 0.0 | 0.00 | 1.14 | 0.13 | 100 | 1016.0 |
| 20260502102004 | 13 | 0 | 0.0 | 0.0 | 0.00 | 1.14 | 0.13 | 100 | 1016.0 |
| 20260502101503 | 13 | 0 | 0.0 | 0.0 | 0.00 | 1.14 | 0.13 | 100 | 1016.0 |
| 20260502101003 | 13 | 0 | 0.0 | 0.0 | 0.03 | 1.14 | 0.13 | 100 | 1016.0 |
| 20260502100503 | 13 | 0 | 0.0 | 0.0 | 0.03 | 1.14 | 0.13 | 100 | 1016.0 |
| 20260502091504 | 13 | 0 | 0.0 | 0.0 | 0.03 | 1.14 | 0.13 | 100 | 1015.1 |
| 20260502091004 | 13 | 0 | 0.0 | 0.0 | 0.00 | 1.12 | 0.10 | 100 | 1015.1 |
| 20260502090504 | 13 | 0 | 0.0 | 0.0 | 0.03 | 1.12 | 0.10 | 100 | 1015.0 |
| 20260502090216 | 13 | 0 | 0.0 | 0.0 | 0.03 | 1.12 | 0.10 | 100 | 1014.9 |
| 20260502071504 | 14 | 0 | 0.0 | 0.0 | 0.05 | 1.09 | 0.08 | 100 | 1014.8 |
| 20260502071004 | 14 | 0 | 0.0 | 0.0 | 0.05 | 1.09 | 0.08 | 100 | 1014.9 |
| 20260502070504 | 14 | 0 | 0.0 | 0.0 | 0.03 | 1.07 | 0.05 | 100 | 1014.9 |
| 20260502070003 | 14 | 0 | 0.0 | 0.0 | 0.03 | 1.07 | 0.05 | 100 | 1014.7 |
| 20260502065504 | 14 | 0 | 0.0 | 0.0 | 0.03 | 1.07 | 0.05 | 100 | 1014.8 |
| 20260502065003 | 14 | 0 | 0.0 | 0.0 | 0.03 | 1.07 | 0.05 | 100 | 1014.7 |
| 20260502064504 | 14 | 0 | 0.0 | 0.0 | 0.03 | 1.07 | 0.05 | 100 | 1014.7 |
| 20260502064004 | 14 | 0 | 0.0 | 0.0 | 0.03 | 1.07 | 0.05 | 100 | 1014.7 |
| 20260502063503 | 14 | 0 | 0.0 | 0.0 | 0.03 | 1.07 | 0.05 | 100 | 1014.8 |
| 20260502063215 | 14 | 0 | 0.0 | 0.0 | 0.03 | 1.07 | 0.05 | 100 | 1014.8 |
| 20260502062504 | 14 | 0 | 0.0 | 0.0 | 0.05 | 1.07 | 0.05 | 100 | 1014.7 |
| 20260502062004 | 14 | 0 | 0.0 | 0.0 | 0.05 | 1.07 | 0.05 | 100 | 1014.6 |
| 20260502061504 | 14 | 0 | 0.0 | 0.0 | 0.03 | 1.04 | 0.03 | 100 | 1014.6 |
| 20260502061004 | 14 | 0 | 0.0 | 0.0 | 0.03 | 1.04 | 0.03 | 100 | 1014.7 |
| 20260502060715 | 14 | 0 | 0.0 | 0.0 | 0.03 | 1.04 | 0.03 | 100 | 1014.5 |
| 20260502060004 | 14 | 0 | 0.0 | 0.0 | 0.03 | 1.04 | 0.03 | 100 | 1014.5 |
| 20260502055503 | 14 | 0 | 0.0 | 0.0 | 0.03 | 1.04 | 0.03 | 100 | 1014.6 |
| 20260502055003 | 14 | 0 | 0.0 | 0.0 | 0.03 | 1.04 | 0.03 | 100 | 1014.6 |
| 20260502054504 | 14 | 0 | 0.0 | 0.0 | 0.03 | 1.04 | 0.03 | 100 | 1014.6 |
| 20260502054004 | 14 | 0 | 0.0 | 0.0 | 0.03 | 1.04 | 0.03 | 100 | 1014.5 |
| 20260502053504 | 14 | 0 | 0.0 | 0.0 | 0.05 | 1.04 | 0.03 | 100 | 1014.6 |
| 20260502053216 | 14 | 0 | 0.0 | 0.0 | 0.05 | 1.04 | 0.03 | 100 | 1014.7 |
| 20260502052714 | 14 | 0 | 0.0 | 0.0 | 0.05 | 1.04 | 0.03 | 100 | 1014.8 |
| 20260502052004 | 14 | 0 | 0.0 | 0.0 | 0.03 | 1.02 | 0.00 | 100 | 1014.7 |
| 20260502051503 | 13 | 0 | 0.0 | 0.0 | 0.03 | 1.02 | 0.00 | 100 | 1014.7 |
| 20260502051003 | 13 | 0 | 0.0 | 0.0 | 0.03 | 1.02 | 0.00 | 100 | 1014.7 |
| 20260502050503 | 13 | 0 | 0.0 | 0.0 | 0.03 | 1.02 | 0.00 | 100 | 1014.7 |
| 20260502050005 | 14 | 0 | 0.0 | 0.0 | 0.03 | 1.02 | 0.00 | 100 | 1014.7 |
| 20260502045717 | 14 | 0 | 0.0 | 0.0 | 0.05 | 1.02 | 1.02 | 100 | 1014.7 |
| 20260502044504 | 14 | 0 | 0.0 | 0.0 | 0.05 | 1.02 | 1.02 | 100 | 1014.8 |
| 20260502044003 | 14 | 0 | 0.0 | 0.0 | 0.05 | 1.02 | 1.02 | 100 | 1014.8 |
| 20260502043504 | 14 | 0 | 0.0 | 0.0 | 0.03 | 0.99 | 0.99 | 100 | 1014.8 |
| 20260502043217 | 14 | 0 | 0.0 | 0.0 | 0.03 | 0.99 | 0.99 | 100 | 1014.7 |
| 20260502042503 | 14 | 0 | 0.0 | 0.0 | 0.03 | 0.99 | 0.99 | 100 | 1014.7 |
| 20260502042004 | 14 | 0 | 0.0 | 0.0 | 0.03 | 0.99 | 0.99 | 100 | 1014.6 |
| 20260502041504 | 14 | 0 | 0.0 | 0.0 | 0.05 | 0.99 | 0.99 | 100 | 1014.6 |
| 20260502041005 | 14 | 0 | 0.0 | 0.0 | 0.05 | 0.99 | 0.99 | 100 | 1014.6 |
| 20260502040503 | 14 | 0 | 0.0 | 0.0 | 0.05 | 0.99 | 0.99 | 100 | 1014.6 |
| 20260502040004 | 15 | 0 | 0.0 | 0.0 | 0.05 | 0.99 | 0.99 | 100 | 1014.4 |
| 20260502035504 | 15 | 0 | 0.0 | 0.0 | 0.03 | 0.97 | 0.97 | 100 | 1014.6 |
| 20260502035004 | 15 | 0 | 0.0 | 0.0 | 0.03 | 0.97 | 0.97 | 100 | 1014.2 |
| 20260502034504 | 15 | 0 | 0.0 | 0.0 | 0.03 | 0.97 | 0.97 | 100 | 1014.1 |
| 20260502034004 | 15 | 0 | 0.0 | 0.0 | 0.05 | 0.97 | 0.97 | 100 | 1014.0 |
| 20260502033714 | 15 | 0 | 0.0 | 0.0 | 0.05 | 0.97 | 0.97 | 100 | 1013.9 |
| 20260502033217 | 15 | 0 | 0.0 | 0.0 | 0.05 | 0.97 | 0.97 | 100 | 1013.7 |
| 20260502032503 | 15 | 0 | 0.0 | 0.0 | 0.05 | 0.97 | 0.97 | 100 | 1013.8 |
| 20260502032218 | 15 | 0 | 0.0 | 0.0 | 0.05 | 0.97 | 0.97 | 100 | 1013.6 |
| 20260502031504 | 15 | 0 | 0.0 | 0.0 | 0.03 | 0.94 | 0.94 | 100 | 1013.1 |
| 20260502031003 | 15 | 0 | 0.0 | 0.0 | 0.03 | 0.94 | 0.94 | 100 | 1012.9 |
| 20260502030504 | 15 | 0 | 0.0 | 0.0 | 0.05 | 0.94 | 0.94 | 100 | 1012.7 |
| 20260502030004 | 15 | 0 | 0.0 | 0.0 | 0.05 | 0.97 | 0.94 | 100 | 1013.0 |
| 20260502025504 | 15 | 0 | 0.0 | 0.0 | 0.05 | 1.02 | 0.94 | 100 | 1013.0 |
| 20260502025004 | 15 | 0 | 0.0 | 0.0 | 0.05 | 1.04 | 0.94 | 100 | 1012.8 |
| 20260502024504 | 15 | 0 | 0.0 | 0.0 | 0.05 | 1.07 | 0.94 | 100 | 1012.9 |
| 20260502024004 | 15 | 0 | 0.0 | 0.0 | 0.03 | 1.07 | 0.91 | 100 | 1012.8 |
| 20260502023503 | 15 | 0 | 0.0 | 0.0 | 0.05 | 1.09 | 0.91 | 100 | 1013.2 |
| 20260502023004 | 15 | 0 | 0.0 | 0.0 | 0.05 | 1.12 | 0.91 | 100 | 1013.4 |
| 20260502022716 | 15 | 0 | 0.0 | 0.0 | 0.05 | 1.14 | 0.91 | 100 | 1013.2 |
| 20260502022003 | 15 | 0 | 0.0 | 0.0 | 0.05 | 1.17 | 0.91 | 100 | 1012.9 |
| 20260502021504 | 15 | 0 | 0.0 | 0.0 | 0.05 | 1.19 | 0.91 | 100 | 1012.9 |
| 20260502021004 | 15 | 0 | 0.0 | 0.0 | 0.05 | 1.22 | 0.91 | 100 | 1012.7 |
| 20260502020504 | 15 | 0 | 0.0 | 0.0 | 0.05 | 1.22 | 0.89 | 100 | 1012.7 |
| 20260502020004 | 16 | 0 | 0.0 | 0.0 | 0.05 | 1.27 | 0.89 | 100 | 1012.7 |
| 20260502015714 | 16 | 0 | 0.0 | 0.0 | 0.05 | 1.27 | 0.89 | 100 | 1012.5 |
| 20260502015004 | 16 | 0 | 0.0 | 0.0 | 0.05 | 1.32 | 0.89 | 100 | 1012.5 |
| 20260502014504 | 16 | 0 | 0.0 | 0.0 | 0.05 | 1.35 | 0.89 | 100 | 1012.5 |
| 20260502014003 | 16 | 0 | 0.0 | 0.0 | 0.05 | 1.37 | 0.89 | 100 | 1012.2 |
| 20260502013716 | 16 | 0 | 0.0 | 0.0 | 0.03 | 1.37 | 0.86 | 100 | 1012.1 |
| 20260502013003 | 16 | 0 | 0.0 | 0.0 | 0.05 | 1.40 | 0.86 | 100 | 1012.1 |
| 20260502012504 | 16 | 0 | 0.0 | 0.0 | 0.05 | 1.45 | 0.86 | 100 | 1011.8 |
| 20260502012004 | 16 | 0 | 0.0 | 0.0 | 0.05 | 1.47 | 0.86 | 100 | 1011.7 |
| 20260502011717 | 16 | 0 | 0.0 | 0.0 | 0.05 | 1.50 | 0.86 | 100 | 1011.2 |
| 20260502011004 | 16 | 0 | 0.0 | 0.0 | 0.05 | 1.55 | 0.86 | 100 | 1010.5 |
| 20260502010503 | 16 | 0 | 0.0 | 0.0 | 0.05 | 1.55 | 0.84 | 100 | 1010.4 |
| 20260502010216 | 16 | 0 | 0.0 | 0.0 | 0.05 | 1.55 | 0.84 | 100 | 1010.5 |
| 20260502005504 | 16 | 0 | 0.0 | 0.0 | 0.05 | 1.60 | 0.84 | 100 | 1010.7 |
| 20260502005217 | 16 | 0 | 0.0 | 0.0 | 0.05 | 1.63 | 0.84 | 100 | 1010.7 |
| 20260502004504 | 16 | 0 | 0.0 | 0.0 | 0.05 | 1.68 | 0.84 | 100 | 1011.1 |
| 20260502004004 | 16 | 0 | 0.0 | 0.0 | 0.05 | 1.70 | 0.84 | 100 | 1011.0 |
| 20260502003503 | 16 | 0 | 0.0 | 0.0 | 0.05 | 1.68 | 0.81 | 100 | 1010.5 |
| 20260502003003 | 16 | 0 | 0.0 | 0.0 | 0.05 | 1.68 | 0.81 | 100 | 1009.9 |
| 20260502002504 | 16 | 0 | 0.0 | 0.0 | 0.05 | 1.68 | 0.81 | 100 | 1009.9 |
| 20260502002005 | 16 | 0 | 0.0 | 0.0 | 0.05 | 1.68 | 0.81 | 100 | 1009.9 |
| 20260502001503 | 16 | 0 | 0.0 | 0.0 | 0.05 | 1.68 | 0.81 | 100 | 1009.3 |
| 20260502001003 | 16 | 0 | 0.0 | 0.0 | 0.08 | 1.68 | 0.81 | 100 | 1009.0 |
| 20260502000504 | 16 | 0 | 0.0 | 0.0 | 0.05 | 1.65 | 0.79 | 100 | 1009.0 |
| 20260502000218 | 16 | 0 | 0.0 | 0.0 | 0.05 | 1.65 | 0.79 | 100 | 1009.0 |
| 20260501235504 | 16 | 0 | 0.0 | 0.0 | 0.05 | 1.65 | 0.79 | 100 | 1010.0 |
| 20260501235004 | 17 | 0 | 0.0 | 0.0 | 0.05 | 1.65 | 0.79 | 100 | 1009.9 |
| 20260501234716 | 17 | 0 | 0.0 | 0.0 | 0.05 | 1.65 | 0.79 | 100 | 1009.7 |
| 20260501234003 | 17 | 0 | 0.0 | 0.0 | 0.08 | 1.65 | 0.79 | 100 | 1008.9 |
| 20260501233503 | 17 | 0 | 0.0 | 0.0 | 0.05 | 1.63 | 0.76 | 100 | 1008.8 |
| 20260501233004 | 17 | 0 | 0.0 | 0.0 | 0.05 | 1.63 | 0.76 | 100 | 1008.7 |
| 20260501232503 | 17 | 0 | 0.0 | 0.0 | 0.05 | 1.63 | 0.76 | 100 | 1008.6 |
| 20260501232004 | 17 | 0 | 0.0 | 0.0 | 0.05 | 1.63 | 0.76 | 100 | 1008.9 |
| 20260501231504 | 17 | 0 | 0.0 | 0.0 | 0.08 | 1.63 | 0.76 | 100 | 1008.3 |
| 20260501231004 | 17 | 0 | 0.0 | 0.0 | 0.05 | 1.60 | 0.74 | 100 | 1008.5 |
| 20260501230504 | 17 | 0 | 0.0 | 0.0 | 0.05 | 1.60 | 0.74 | 100 | 1008.4 |
| 20260501230003 | 17 | 0 | 0.0 | 0.0 | 0.05 | 1.60 | 0.74 | 100 | 1008.8 |
| 20260501225715 | 17 | 0 | 0.0 | 0.0 | 0.05 | 1.60 | 0.74 | 100 | 1008.7 |
| 20260501225005 | 17 | 0 | 0.0 | 0.0 | 0.08 | 1.60 | 0.74 | 100 | 1009.1 |
| 20260501224504 | 17 | 0 | 0.0 | 0.0 | 0.08 | 1.60 | 0.74 | 100 | 1009.1 |
| 20260501224003 | 17 | 0 | 0.0 | 0.0 | 0.05 | 1.57 | 0.71 | 100 | 1009.2 |
| 20260501223712 | 17 | 0 | 0.0 | 0.0 | 0.05 | 1.57 | 0.71 | 100 | 1009.2 |
| 20260501223003 | 17 | 0 | 0.0 | 0.0 | 0.08 | 1.57 | 0.71 | 100 | 1010.0 |
| 20260501222503 | 17 | 0 | 0.0 | 0.0 | 0.08 | 1.57 | 0.71 | 100 | 1010.2 |
| 20260501222003 | 17 | 0 | 0.0 | 0.0 | 0.08 | 1.57 | 0.71 | 100 | 1010.3 |
| 20260501221503 | 17 | 0 | 0.0 | 0.0 | 0.05 | 1.55 | 0.69 | 100 | 1010.3 |
| 20260501221004 | 17 | 0 | 0.0 | 0.0 | 0.05 | 1.55 | 0.69 | 100 | 1010.0 |
| 20260501220503 | 17 | 0 | 0.0 | 0.0 | 0.08 | 1.55 | 0.69 | 100 | 1009.9 |
| 20260501215503 | 17 | 0 | 0.0 | 0.0 | 0.05 | 1.52 | 0.66 | 100 | 1009.5 |
| 20260501215004 | 17 | 0 | 0.0 | 0.0 | 0.05 | 1.52 | 0.66 | 100 | 1009.2 |
| 20260501214717 | 17 | 0 | 0.0 | 0.0 | 0.05 | 1.52 | 0.66 | 100 | 1008.8 |
| 20260501214004 | 17 | 0 | 0.0 | 0.0 | 0.08 | 1.52 | 0.66 | 100 | 1008.6 |
| 20260501213504 | 17 | 0 | 0.0 | 0.0 | 0.08 | 1.52 | 0.66 | 100 | 1009.4 |
| 20260501213004 | 17 | 0 | 0.0 | 0.0 | 0.05 | 1.50 | 0.64 | 100 | 1009.5 |
| 20260501212503 | 17 | 0 | 0.0 | 0.0 | 0.05 | 1.50 | 0.64 | 100 | 1008.8 |
| 20260501212003 | 17 | 0 | 0.0 | 0.0 | 0.05 | 1.50 | 0.64 | 100 | 1010.0 |
| 20260501211503 | 17 | 0 | 0.0 | 0.0 | 0.08 | 1.50 | 0.64 | 100 | 1009.5 |
| 20260501211218 | 17 | 0 | 0.0 | 0.0 | 0.08 | 1.50 | 0.64 | 100 | 1008.9 |
| 20260501210716 | 17 | 0 | 0.0 | 0.0 | 0.05 | 1.47 | 0.61 | 100 | 1009.4 |
| 20260501210214 | 17 | 0 | 0.0 | 0.0 | 0.05 | 1.47 | 0.61 | 100 | 1009.1 |
| 20260501205504 | 17 | 0 | 0.0 | 0.0 | 0.05 | 1.47 | 0.61 | 100 | 1008.9 |
| 20260501205003 | 18 | 0 | 0.0 | 0.0 | 0.08 | 1.47 | 0.61 | 100 | 1008.6 |
| 20260501204505 | 18 | 0 | 0.0 | 0.0 | 0.08 | 1.47 | 0.61 | 100 | 1008.7 |
| 20260501204003 | 18 | 0 | 0.0 | 0.0 | 0.05 | 1.45 | 0.58 | 100 | 1008.5 |
| 20260501203504 | 18 | 0 | 0.0 | 0.0 | 0.05 | 1.45 | 0.58 | 100 | 1008.4 |
| 20260501203003 | 18 | 0 | 0.0 | 0.0 | 0.08 | 1.45 | 0.58 | 100 | 1007.6 |
| 20260501202503 | 18 | 0 | 0.0 | 0.0 | 0.08 | 1.45 | 0.58 | 100 | 1008.1 |
| 20260501202004 | 18 | 0 | 0.0 | 0.0 | 0.08 | 1.45 | 0.58 | 100 | 1009.8 |
| 20260501201715 | 18 | 0 | 0.0 | 0.0 | 0.05 | 1.42 | 0.56 | 100 | 1009.7 |
| 20260501201003 | 18 | 0 | 0.0 | 0.0 | 0.05 | 1.42 | 0.56 | 100 | 1007.8 |
| 20260501200503 | 18 | 0 | 0.0 | 0.0 | 0.08 | 1.42 | 0.56 | 100 | 1007.2 |
| 20260501200005 | 18 | 0 | 0.0 | 0.0 | 0.08 | 1.42 | 0.56 | 100 | 1007.6 |
| 20260501195504 | 18 | 0 | 0.0 | 0.0 | 0.08 | 1.42 | 0.56 | 100 | 1008.2 |
| 20260501195004 | 18 | 0 | 0.0 | 0.0 | 0.05 | 1.40 | 0.53 | 100 | 1008.6 |
| 20260501194718 | 18 | 0 | 0.0 | 0.0 | 0.05 | 1.40 | 0.53 | 100 | 1008.6 |
| 20260501194003 | 18 | 0 | 0.0 | 0.0 | 0.08 | 1.40 | 0.53 | 100 | 1008.7 |
| 20260501193503 | 18 | 0 | 0.0 | 0.0 | 0.08 | 1.40 | 0.53 | 100 | 1008.5 |
| 20260501193003 | 18 | 0 | 0.0 | 0.0 | 0.05 | 1.37 | 0.51 | 100 | 1008.2 |
| 20260501192504 | 18 | 0 | 0.0 | 0.0 | 0.05 | 1.37 | 0.51 | 100 | 1008.1 |
| 20260501192005 | 18 | 0 | 0.0 | 0.0 | 0.08 | 1.37 | 0.51 | 100 | 1008.6 |
| 20260501191504 | 18 | 0 | 0.0 | 0.0 | 0.08 | 1.37 | 0.51 | 100 | 1008.4 |
| 20260501191214 | 18 | 0 | 0.0 | 0.0 | 0.08 | 1.37 | 0.51 | 100 | 1008.6 |
| 20260501190503 | 18 | 0 | 0.0 | 0.0 | 0.05 | 1.35 | 0.48 | 100 | 1008.9 |
| 20260501190005 | 18 | 0 | 0.0 | 0.0 | 0.08 | 1.35 | 0.48 | 100 | 1008.6 |
| 20260501185503 | 18 | 0 | 0.0 | 0.0 | 0.08 | 1.35 | 0.48 | 100 | 1008.8 |
| 20260501185004 | 18 | 0 | 0.0 | 0.0 | 0.08 | 1.35 | 0.48 | 100 | 1008.8 |
| 20260501184504 | 18 | 0 | 0.0 | 0.0 | 0.08 | 1.32 | 0.46 | 100 | 1008.9 |
| 20260501184003 | 18 | 0 | 0.0 | 0.0 | 0.08 | 1.32 | 0.46 | 100 | 1008.9 |
| 20260501183504 | 18 | 0 | 0.0 | 0.0 | 0.08 | 1.32 | 0.46 | 100 | 1008.9 |
| 20260501183004 | 18 | 0 | 0.0 | 0.0 | 0.08 | 1.32 | 0.46 | 100 | 1008.8 |
| 20260501182503 | 18 | 0 | 0.0 | 0.0 | 0.10 | 1.32 | 0.46 | 100 | 1009.0 |
| 20260501182004 | 18 | 0 | 0.0 | 0.0 | 0.08 | 1.30 | 0.43 | 100 | 1008.9 |
| 20260501181503 | 18 | 0 | 0.0 | 0.0 | 0.08 | 1.30 | 0.43 | 100 | 1008.9 |
| 20260501181003 | 18 | 0 | 0.0 | 0.0 | 0.10 | 1.30 | 0.43 | 100 | 1008.8 |
| 20260501180505 | 18 | 0 | 0.0 | 0.0 | 0.10 | 1.30 | 0.43 | 100 | 1008.7 |
| 20260501180004 | 18 | 0 | 0.0 | 0.0 | 0.08 | 1.27 | 0.41 | 100 | 1008.7 |
| 20260501175504 | 18 | 0 | 0.0 | 0.0 | 0.10 | 1.27 | 0.41 | 100 | 1008.9 |
| 20260501175004 | 18 | 0 | 0.0 | 0.0 | 0.10 | 1.27 | 0.41 | 100 | 1009.2 |
| 20260501174504 | 18 | 0 | 0.0 | 0.0 | 0.08 | 1.24 | 0.38 | 100 | 1009.5 |
| 20260501174004 | 18 | 0 | 0.0 | 0.0 | 0.10 | 1.24 | 0.38 | 100 | 1009.5 |
| 20260501173504 | 18 | 0 | 0.0 | 0.0 | 0.10 | 1.24 | 0.38 | 100 | 1009.6 |
| 20260501173003 | 18 | 0 | 0.0 | 0.0 | 0.10 | 1.24 | 0.38 | 100 | 1009.6 |
| 20260501172503 | 18 | 0 | 0.0 | 0.0 | 0.08 | 1.22 | 0.36 | 100 | 1009.8 |
| 20260501172003 | 18 | 0 | 0.0 | 0.0 | 0.10 | 1.22 | 0.36 | 100 | 1010.0 |
| 20260501171717 | 17 | 0 | 0.0 | 0.0 | 0.10 | 1.22 | 0.36 | 100 | 1010.1 |
| 20260501171003 | 17 | 0 | 0.0 | 0.0 | 0.08 | 1.19 | 0.33 | 100 | 1009.9 |
| 20260501170503 | 17 | 0 | 0.0 | 0.0 | 0.10 | 1.19 | 0.33 | 100 | 1010.0 |
| 20260501170003 | 18 | 0 | 0.0 | 0.0 | 0.10 | 1.19 | 0.33 | 100 | 1011.7 |
| 20260501165505 | 18 | 0 | 0.0 | 0.0 | 0.08 | 1.17 | 0.30 | 100 | 1012.2 |
| 20260501165004 | 18 | 0 | 0.0 | 0.0 | 0.08 | 1.17 | 0.30 | 100 | 1010.7 |
| 20260501164504 | 18 | 0 | 0.0 | 0.0 | 0.10 | 1.17 | 0.30 | 100 | 1009.9 |
| 20260501164004 | 18 | 0 | 0.0 | 0.0 | 0.08 | 1.14 | 0.28 | 100 | 1009.3 |
| 20260501163503 | 18 | 0 | 0.0 | 0.0 | 0.10 | 1.14 | 0.28 | 100 | 1009.3 |